Flag for U.S.A. Weather past 2 weeks in Coeur d'Alene, Idaho, U.S.A.

Now
55 °F

Clear.


Feels Like: 53 °F
Forecast: 49 / 74 °F
Wind: 9 mph from South

Location: Coeur d'Alene Weather Reporting System

Current Time: Sep 2, 2014 at 3:06:14 AM

Latest Report: Sep 2, 2014 at 2:35 AM


Visibility: 10 mi

Pressure: 29.91 "Hg

Humidity: 67%

Dew point: 45 °F

Location of Coeur d'AleneLocation

Historic Weather in Coeur d'Alene — Graph

°F

Coeur d'Alene temperature yesterday

Maximum temperature yesterday: 73 °F (at 2:55 PM)
Minimum temperature yesterday: 46 °F (at 4:55 AM)
Average temperature yesterday: 60 °F

Past Weeks' High & Low Weather Summary

 TemperatureHumidityPressure
High90 °F (Aug 18, 3:15 PM)100% (Sep 1, 12:35 PM)30.14 "Hg (Sep 1, 12:35 PM)
Low46 °F (Aug 26, 6:15 AM)11% (Sep 1, 10:55 AM)29.66 "Hg (Aug 19, 4:55 PM)
Average66 °F55%29.95 "Hg
* Reported Aug 18 1:15 AM — Sep 2 1:55 AM, Coeur d'Alene, Weather by CustomWeather, © 2014

Note: Actual official high and low records may vary slightly from our data, if they occured in-between our weather recording intervals... More about our weather records

Advertising

Coeur d'Alene weather history for previous 24 hours

 ConditionsComfort  
Time TempWeatherWind HumidityBarometerVisibility
1:55 AM
Sep 2
55 °FClear.10 mph67%29.91 "Hg10 mi
1:35 AM55 °FClear.10 mph63%29.91 "Hg10 mi
1:15 AM55 °FClear.8 mph63%29.92 "Hg10 mi
12:55 AM55 °FClear.8 mph63%29.92 "Hg10 mi
12:35 AM55 °FClear.8 mph63%29.93 "Hg10 mi
12:15 AM55 °FClear.6 mph63%29.93 "Hg10 mi
11:55 PM
Sep 1
54 °FClear.3 mph63%29.93 "Hg10 mi
11:35 PM54 °FClear.No wind63%29.93 "Hg10 mi
11:15 PM55 °FClear.No wind63%29.93 "Hg10 mi
10:55 PM57 °FClear.No wind59%29.93 "Hg10 mi
10:35 PM59 °FClear.8 mph55%29.94 "Hg10 mi
10:15 PM59 °FClear.8 mph51%29.94 "Hg10 mi
9:55 PM61 °FClear.8 mph52%29.95 "Hg10 mi
9:35 PM61 °FClear.3 mph45%29.95 "Hg10 mi
9:15 PM61 °FClear.7 mph45%29.95 "Hg10 mi
8:55 PM61 °FClear.8 mph45%29.96 "Hg10 mi
8:35 PM59 °FClear.8 mph45%29.96 "Hg10 mi
8:15 PM61 °FSunny.8 mph42%29.96 "Hg10 mi
7:55 PM61 °FSunny.8 mph42%29.96 "Hg10 mi
7:35 PM63 °FSunny.7 mph39%29.95 "Hg10 mi
7:15 PM64 °FSunny.7 mph37%29.95 "Hg10 mi
6:55 PM68 °FScattered clouds.8 mph33%29.95 "Hg10 mi
6:35 PM70 °FScattered clouds.8 mph31%29.96 "Hg10 mi
6:15 PM70 °FSunny.8 mph31%29.96 "Hg10 mi
5:55 PM72 °FPartly sunny.12 mph29%29.96 "Hg10 mi
5:35 PM72 °FScattered clouds.10 mph29%29.96 "Hg10 mi
5:15 PM72 °FPassing clouds.14 mph29%29.96 "Hg10 mi
4:55 PM72 °FPassing clouds.10 mph29%29.97 "Hg10 mi
4:35 PM73 °FScattered clouds.15 mph27%29.97 "Hg10 mi
4:15 PM72 °FScattered clouds.14 mph31%29.98 "Hg10 mi
3:55 PM73 °FPassing clouds.13 mph29%29.98 "Hg10 mi
3:35 PM72 °FScattered clouds.13 mph31%29.99 "Hg10 mi
3:15 PM72 °FPassing clouds.9 mph31%29.99 "Hg10 mi
2:55 PM73 °FPassing clouds.13 mph29%30.00 "Hg10 mi
2:35 PM72 °FPassing clouds.15 mph31%30.01 "Hg10 mi
1:55 PM72 °FPartly sunny.16 mph33%30.02 "Hg10 mi
1:35 PM68 °FPartly sunny.8 mph35%30.02 "Hg10 mi
1:15 PM68 °FScattered clouds.7 mph35%30.02 "Hg10 mi
12:55 PM70 °FScattered clouds.9 mph38%30.02 "Hg10 mi
12:35 PM70 °FPassing clouds.7 mph100%30.04 "Hg10 mi
12:15 PM66 °FSunny.8 mph11%30.04 "Hg10 mi
11:55 AM66 °FPassing clouds.8 mph11%30.04 "Hg10 mi
11:35 AM64 °FPassing clouds.8 mph11%30.04 "Hg10 mi
10:55 AM64 °FPassing clouds.7 mph11%30.05 "Hg10 mi
10:35 AM64 °FPassing clouds.10 mph46%30.06 "Hg10 mi
10:15 AM63 °FSunny.12 mph45%30.06 "Hg10 mi
9:55 AM61 °FSunny.9 mph52%30.06 "Hg10 mi
9:35 AM61 °FSunny.10 mph48%30.06 "Hg10 mi
9:15 AM61 °FSunny.12 mph52%30.06 "Hg10 mi
8:55 AM57 °FSunny.12 mph55%30.06 "Hg10 mi
8:35 AM57 °FSunny.14 mph59%30.05 "Hg10 mi
8:15 AM55 °FSunny.13 mph63%30.05 "Hg10 mi
7:55 AM55 °FSunny.13 mph67%30.05 "Hg10 mi
7:35 AM54 °FSunny.10 mph72%30.04 "Hg10 mi
7:15 AM52 °FSunny.9 mph72%30.04 "Hg10 mi
6:55 AM50 °FClear.7 mph67%30.04 "Hg10 mi
6:35 AM46 °FClear.9 mph71%30.04 "Hg10 mi
6:15 AM46 °FClear.No wind76%30.04 "Hg10 mi
5:55 AM48 °FClear.No wind82%30.03 "Hg10 mi
5:35 AM46 °FClear.5 mph46%30.03 "Hg10 mi
4:55 AM46 °FClear.8 mph71%30.02 "Hg10 mi
4:35 AM50 °FClear.7 mph71%30.01 "Hg10 mi
4:15 AM54 °FClear.5 mph72%30.00 "Hg10 mi
3:55 AM52 °FClear.3 mph72%29.99 "Hg10 mi
3:35 AM52 °FClear.3 mph72%30.00 "Hg10 mi
Weather by CustomWeather, © 2014

See weather overviewHow to use our weather pages